CANX-2

Last updated on Sat Jul 05 2025 00:03:43 GMT+0000 (Coordinated Universal Time)

1 32790U 08021H 25185.48832338 .00002319 00000+0 18215-3 0 9996 2 32790 97.8178 155.4361 0013019 124.2787 235.9672 15.01850485932558
UTC large
Height (km)
Speed (km/s)
/
Latitude / Longitude
Inclination (degrees)
Orbital Period (minutes)
Azimuth
Elevation
Range (km)
Doppler Factor

Next 0 passes for location: London (51.5072 / 0.1276)

Sorry there are no passes over London.